Home > Time Zones > World Clock > Weather > Iran > Yazd > Past weeks

Flag Weather past 2 weeks in Yazd, Iran

Now
45 °F

Fog.


Feels Like: 45 °F
Forecast: 37 / 54 °F
Wind: 2 mph from Southwest

Location: Yazd Airport

Current Time: Nov 28, 2014 at 5:08:29 AM

Latest Report: Nov 28, 2014 at 3:30 AM


Visibility: 2 mi

Pressure: 30.12 "Hg

Humidity: 93%

Dew point: 43 °F

Location of YazdLocation

Historic Weather in Yazd — Graph

°F

Yazd temperature yesterday

Maximum temperature yesterday: 63 °F (at 3:30 PM)
Minimum temperature yesterday: 43 °F (at 4:30 AM)
Average temperature yesterday: 51 °F

Past Weeks' High & Low Weather Summary

 TemperatureHumidityPressure
High73 °F (Nov 22, 2:30 PM)100% (Nov 25, 10:00 AM)30.39 "Hg (Nov 25, 10:00 AM)
Low37 °F (Nov 14, 6:00 AM)8% (Nov 17, 2:30 PM)29.92 "Hg (Nov 23, 2:30 PM)
Average54 °F42%30.18 "Hg
* Reported Nov 13 3:30 AM — Nov 28 3:30 AM, Yazd, Weather by CustomWeather, © 2014

Note: Actual official high and low records may vary slightly from our data, if they occured in-between our weather recording intervals... More about our weather records

Advertising

Yazd weather history for previous 24 hours

 ConditionsComfort  
Time TempWeatherWind HumidityBarometerVisibility
3:30 AM
Nov 28
45 °FFog.2 mph93%30.12 "Hg2 mi
12:30 AM46 °FFog.2 mph100%30.12 "Hg3 mi
11:30 PM
Nov 27
48 °FFog.5 mph87%30.12 "Hg3 mi
11:00 PM46 °FFog.5 mph93%30.12 "Hg3 mi
10:30 PM48 °FFog.2 mph100%30.12 "Hg3 mi
10:00 PM48 °FFog.5 mph100%30.12 "Hg3 mi
9:30 PM52 °FFog.5 mph88%30.12 "Hg3 mi
9:00 PM52 °FFog.5 mph88%30.12 "Hg3 mi
8:30 PM52 °FFog.5 mph88%30.12 "Hg2 mi
8:00 PM52 °FFog.5 mph88%30.12 "Hg3 mi
7:30 PM52 °FFog.5 mph88%30.12 "Hg2 mi
7:00 PM52 °FFog.2 mph82%30.09 "Hg2 mi
6:30 PM54 °FClear.5 mph77%30.09 "Hg3 mi
6:00 PM55 °FClear.5 mph67%30.09 "Hg4 mi
5:30 PM57 °FClear.5 mph59%30.07 "Hg10 mi
5:00 PM57 °FSunny.2 mph55%30.07 "Hg10 mi
4:30 PM61 °FSunny.2 mph45%30.07 "Hg10 mi
3:30 PM63 °FSunny.2 mph42%30.04 "Hg10 mi
2:30 PM61 °FSunny.2 mph48%30.04 "Hg10 mi
1:30 PM61 °FClear.2 mph48%30.07 "Hg5 mi
12:30 PM59 °FPassing clouds.7 mph55%30.07 "Hg4 mi
11:30 AM57 °FHaze.5 mph67%30.12 "Hg2 mi
11:00 AM55 °FSunny.5 mph72%30.12 "Hg2 mi
10:30 AM55 °FFog.2 mph77%30.15 "Hg2 mi
10:00 AM54 °FFog.2 mph88%30.15 "Hg2 mi
9:30 AM52 °FFog.2 mph72%30.15 "Hg1 mi
9:00 AM50 °FFog.5 mph76%30.15 "Hg1 mi
8:30 AM48 °FFog.2 mph82%30.15 "Hg1 mi
8:00 AM46 °FFog.No wind100%30.15 "Hg1 mi
7:30 AM43 °FFog.2 mph93%30.15 "Hg2 mi
7:00 AM43 °FFog.2 mph100%30.12 "Hg2 mi
6:30 AM43 °FFog.2 mph100%30.12 "Hg2 mi
5:30 AM43 °FFog.2 mph100%30.12 "Hg3 mi
Weather by CustomWeather, © 2014

See weather overviewHow to use our weather pages